TimeCDT,TemperatureF,Dew PointF,Humidity,Sea Level PressureIn,VisibilityMPH,Wind Direction,Wind SpeedMPH,Gust SpeedMPH,PrecipitationIn,Events,Conditions,WindDirDegrees,DateUTC
12:53 AM,69.1,62.1,78,29.96,10.0,Calm,Calm,-,N/A,,Mostly Cloudy,0,2013-06-05 05:53:00
1:53 AM,69.1,62.1,78,29.95,10.0,NNE,3.5,-,N/A,,Mostly Cloudy,30,2013-06-05 06:53:00
2:53 AM,68.0,62.1,81,29.95,10.0,Calm,Calm,-,N/A,,Scattered Clouds,0,2013-06-05 07:53:00
3:53 AM,66.9,61.0,81,29.95,10.0,NNE,3.5,-,N/A,,Mostly Cloudy,30,2013-06-05 08:53:00
4:53 AM,66.0,61.0,84,29.96,9.0,Calm,Calm,-,N/A,,Mostly Cloudy,0,2013-06-05 09:53:00
5:53 AM,64.9,61.0,87,29.95,8.0,NNE,4.6,-,N/A,,Clear,20,2013-06-05 10:53:00
6:53 AM,66.9,61.0,81,29.96,8.0,Calm,Calm,-,N/A,,Scattered Clouds,0,2013-06-05 11:53:00
7:53 AM,69.1,61.0,75,29.94,10.0,NE,9.2,-,N/A,,Clear,50,2013-06-05 12:53:00
8:53 AM,73.9,63.0,68,29.96,10.0,NE,4.6,-,N/A,,Clear,40,2013-06-05 13:53:00
9:53 AM,77.0,64.0,64,29.95,10.0,NNE,3.5,-,N/A,,Clear,30,2013-06-05 14:53:00
10:53 AM,79.0,64.0,60,29.94,10.0,ENE,3.5,-,N/A,,Clear,60,2013-06-05 15:53:00
11:53 AM,82.9,64.9,54,29.94,10.0,Calm,Calm,-,N/A,,Partly Cloudy,0,2013-06-05 16:53:00
12:53 PM,82.0,64.0,54,29.91,10.0,East,3.5,-,N/A,,Mostly Cloudy,100,2013-06-05 17:53:00
1:53 PM,82.9,62.1,49,29.88,10.0,Calm,Calm,-,N/A,,Scattered Clouds,0,2013-06-05 18:53:00
2:53 PM,84.0,63.0,49,29.84,10.0,Calm,Calm,-,N/A,,Scattered Clouds,0,2013-06-05 19:53:00
3:53 PM,84.9,64.0,49,29.82,10.0,Variable,5.8,-,N/A,,Scattered Clouds,0,2013-06-05 20:53:00
4:53 PM,84.0,64.0,51,29.81,10.0,East,5.8,-,N/A,,Scattered Clouds,80,2013-06-05 21:53:00
5:53 PM,84.0,64.0,51,29.80,10.0,East,4.6,-,N/A,,Clear,90,2013-06-05 22:53:00
6:53 PM,82.9,66.0,56,29.79,10.0,Calm,Calm,-,N/A,,Clear,0,2013-06-05 23:53:00
7:53 PM,81.0,66.9,62,29.79,10.0,Calm,Calm,-,0.00,Rain,Light Rain,0,2013-06-06 00:53:00
8:53 PM,78.1,68.0,71,29.79,10.0,NE,5.8,-,0.00,Rain,Light Rain,40,2013-06-06 01:53:00
9:35 PM,71.6,66.2,83,29.83,4.0,North,15.0,25.3,0.05,Rain-Thunderstorm,Rain,360,2013-06-06 02:35:00
9:50 PM,69.8,66.2,88,29.85,5.0,NW,8.1,-,0.09,Rain,Rain,320,2013-06-06 02:50:00
9:53 PM,70.0,66.9,90,29.84,5.0,NW,5.8,-,0.09,Rain,Rain,320,2013-06-06 02:53:00
10:01 PM,69.8,66.2,88,29.86,1.8,Calm,Calm,-,0.06,Rain-Thunderstorm,Heavy Thunderstorms and Rain,0,2013-06-06 03:01:00
10:14 PM,69.8,66.2,88,29.86,2.5,Calm,Calm,-,0.24,Rain,Light Rain,0,2013-06-06 03:14:00
10:21 PM,69.8,66.2,88,29.85,6.0,NE,5.8,-,0.25,Rain,Light Rain,40,2013-06-06 03:21:00
10:53 PM,70.0,66.9,90,29.82,10.0,NE,9.2,-,0.25,,Mostly Cloudy,40,2013-06-06 03:53:00
11:53 PM,70.0,64.9,84,29.81,9.0,NNE,8.1,-,N/A,,Overcast,20,2013-06-06 04:53:00